Wetbulb
60.80 61.30 61.23 61.56 61.55 61.15 61.10 60.38 59.54 58.57 58.21 58.07 58.21 58.51 58.67 58.84 58.81 58.31 57.61 57.16 57.18 57.46 57.61 57.94 58.18 58.41 62.43 58.07 57.78 62.67 63.31 63.25 62.41 60.66 59.08 58.36 56.81 55.86 53.31 54.32 54.95 53.54 54.37 55.26 56.01 55.89 56.12
60.26 60.45 60.74 60.83 60.89 60.93 61.02 60.36 59.31 58.38 57.87 57.61 57.61 57.76 57.85 58.24 58.46 57.98 57.44 56.85 56.59 56.84 57.21 57.60 58.13 57.66 60.58 53.64 62.66 62.47 61.96 61.40 61.48 59.76 58.36 58.41 56.83 57.28 54.90 54.26 53.95 54.72 54.53 54.96 55.86 55.94 56.41
60.58 60.29 60.31 60.12 60.12 60.31 60.31 59.46 58.88 58.32 57.75 57.51 57.49 57.44 57.44 57.82 57.76 57.50 57.20 56.63 56.22 56.39 56.97 57.55 58.03 60.88 59.22 56.66 63.54 64.69 62.36 61.19 61.38 59.88 57.45 58.48 58.63 56.71 56.04 53.52 55.61 54.59 52.03 54.12 54.82 55.27 54.19
60.47 60.24 60.22 59.65 59.49 59.26 59.01 58.81 58.53 58.24 57.71 57.57 57.75 57.22 56.87 56.99 56.87 56.59 56.28 56.04 55.80 56.27 56.80 57.52 58.30 61.31 55.68 63.06 65.16 63.32 63.63 60.71 61.66 61.36 59.39 59.58 59.17 56.94 55.68 56.21 54.27 52.35 52.27 49.37 53.04 53.24 53.51
60.10 60.04 60.11 59.63 59.09 58.80 58.25 58.09 58.05 58.16 57.92 57.46 57.38 57.26 56.68 56.22 56.10 55.74 55.39 55.29 55.47 56.31 57.60 57.52 60.34 60.26 54.52 62.18 60.35 62.98 63.74 59.37 60.51 60.46 60.44 58.80 58.79 55.87 54.98 52.22 50.90 51.47 47.63 48.79 50.05 52.31 51.85
59.61 59.94 59.76 59.68 59.22 58.77 58.39 57.87 57.52 57.40 57.44 57.26 57.25 57.15 56.72 56.20 55.94 55.31 54.65 55.07 56.30 57.27 59.62 60.07 59.85 56.94 58.29 56.51 60.14 60.20 61.24 60.65 58.78 58.69 57.79 56.65 55.88 52.97 53.36 51.32 45.76 47.56 47.69 49.21 48.63 51.41 51.18
57.35 59.99 59.62 59.47 59.16 59.00 58.69 58.15 57.50 57.11 57.05 57.27 57.29 57.37 56.68 56.24 56.12 55.39 56.85 58.40 56.18 54.82 57.92 54.95 55.50 55.63 55.42 59.71 60.91 59.80 60.98 59.12 58.36 56.40 52.14 54.49 51.37 49.15 51.82 52.72 51.77 50.13 49.10 48.70 51.12 52.81 49.56
57.01 59.26 59.42 59.50 59.22 58.98 59.08 58.54 57.46 56.87 57.17 57.33 57.16 56.76 56.48 56.46 56.22 55.37 58.51 54.22 55.83 58.05 50.30 55.74 55.20 55.07 56.76 58.87 53.57 56.95 60.06 54.55 54.30 51.27 53.18 51.52 49.25 53.35 53.34 52.05 50.19 49.76 48.53 49.01 51.15 50.60 49.06
57.56 58.20 59.03 59.19 59.13 58.85 58.86 58.55 57.43 56.87 56.93 56.96 56.64 56.40 56.36 55.58 55.70 57.04 57.46 54.13 60.76 60.17 52.65 51.90 55.11 53.97 54.93 56.51 51.88 53.25 58.23 56.59 53.27 51.04 51.12 49.68 50.48 50.84 50.93 50.46 48.69 49.51 48.48 48.82 47.56 49.62 51.08
56.96 57.90 58.53 58.94 58.68 58.50 58.45 58.30 57.53 56.89 56.64 56.40 56.04 55.74 55.27 54.71 54.18 58.23 54.99 57.28 60.20 60.54 46.46 46.23 49.50 54.55 55.95 56.69 52.02 57.57 59.42 54.87 51.40 49.11 49.45 49.81 52.52 49.81 49.26 48.12 49.94 47.32 51.41 49.87 47.66 46.73 44.70
56.50 56.94 57.68 58.20 58.04 57.68 57.40 57.49 57.27 56.93 56.54 56.08 55.54 55.48 54.67 55.09 57.25 54.89 56.56 61.42 61.62 57.84 35.07 45.73 51.03 58.24 56.66 53.32 52.75 51.52 56.28 52.77 49.75 49.37 49.98 48.75 48.79 48.42 47.82 49.60 50.78 48.52 49.17 48.31 48.12 47.01 46.39
55.53 56.30 57.11 57.38 57.30 56.83 56.65 56.76 56.66 56.24 56.14 55.68 55.35 55.05 54.19 56.12 57.99 59.25 61.05 61.44 57.88 43.62 34.46 43.24 49.91 49.38 49.69 48.87 48.86 51.08 51.80 53.41 52.41 49.32 50.43 49.65 50.94 49.99 50.97 51.49 51.32 50.11 48.26 47.91 47.81 47.28 41.76
54.24 54.99 56.77 56.95 56.65 56.51 56.40 56.34 56.00 55.84 55.49 55.13 54.87 54.69 56.43 59.42 55.17 61.70 61.34 57.70 42.24 37.47 43.55 42.52 45.90 48.22 49.52 47.39 46.70 48.66 47.87 47.42 47.47 44.20 45.57 48.01 48.26 50.29 50.89 48.82 49.97 49.33 47.37 42.76 41.40 41.09 40.95
54.34 54.27 56.36 56.59 56.49 56.22 56.08 56.00 55.52 55.25 55.09 54.67 53.93 54.04 56.56 59.87 60.79 61.66 58.78 49.25 35.83 41.10 41.63 46.95 47.53 47.58 45.57 47.46 47.36 47.37 47.06 46.04 48.98 47.78 46.82 45.05 43.46 48.22 50.80 49.94 48.10 48.16 48.18 43.15 36.30 38.93 42.05
54.22 55.00 55.68 56.20 56.08 55.90 55.66 55.66 55.19 54.81 54.45 54.09 53.49 58.27 57.64 59.77 60.22 60.34 54.69 40.72 39.67 42.22 44.80 46.03 46.73 44.45 45.08 47.15 47.61 46.55 46.76 47.44 49.01 48.78 45.00 44.92 44.59 50.05 50.13 50.69 50.96 47.83 44.61 49.40 44.44 45.02 40.94
51.46 53.55 54.39 55.80 55.52 55.52 55.11 55.25 54.85 54.55 54.11 53.55 55.78 54.73 55.06 61.15 60.06 57.10 50.85 41.93 43.90 46.48 46.40 48.38 42.48 45.60 43.60 45.59 45.16 45.53 46.28 49.59 47.81 50.12 51.65 47.93 43.46 48.89 49.91 50.72 50.18 49.08 51.21 43.45 44.56 36.30 35.81
48.25 49.23 52.37 54.55 55.06 54.94 54.80 54.78 54.53 54.29 53.70 55.19 55.06 50.11 56.78 60.19 58.45 51.29 43.99 45.19 46.41 48.43 47.41 45.73 45.23 45.00 46.33 45.13 46.17 45.48 46.74 48.53 49.68 49.24 50.79 49.54 46.80 45.93 47.95 47.28 47.60 46.59 45.85 46.51 46.72 45.04 39.00
46.98 47.77 48.86 51.76 54.29 54.66 54.62 54.50 54.32 53.90 53.83 55.74 53.51 45.18 57.73 59.96 46.64 48.10 44.93 47.02 47.34 47.47 48.27 47.19 47.09 46.65 46.31 46.78 45.36 46.35 46.25 48.04 51.14 49.87 46.04 49.39 47.25 43.18 45.62 49.75 49.71 49.54 48.72 48.56 43.01 41.91 44.49
46.49 46.97 47.88 48.60 51.59 53.83 54.46 54.26 53.98 53.56 54.73 56.08 50.57 49.93 56.34 56.09 41.56 42.71 46.64 46.11 48.14 46.88 46.82 45.93 45.39 47.33 48.45 46.86 44.01 47.35 47.83 50.98 49.86 49.53 48.59 48.10 44.90 40.36 42.74 47.18 48.70 46.05 48.55 48.51 48.72 47.63 42.74
45.68 46.52 46.40 48.35 48.26 51.54 52.62 53.93 53.70 53.62 55.11 56.98 50.54 40.19 48.52 51.12 52.09 47.08 44.13 43.67 43.81 48.56 47.57 47.99 46.75 48.59 47.02 45.11 47.70 45.19 46.35 49.37 49.62 49.40 46.86 49.08 47.31 44.49 40.84 44.33 48.16 45.82 46.85 48.24 47.14 43.12 43.35
45.99 45.75 46.84 47.11 48.64 48.30 50.27 51.43 53.32 53.32 54.65 56.16 49.52 44.19 47.16 41.54 44.56 48.48 47.89 45.97 42.90 42.43 47.58 49.01 46.48 46.71 45.50 42.62 44.05 44.44 46.72 47.40 47.41 48.00 49.60 49.81 44.31 46.13 47.38 47.97 47.82 46.56 46.65 47.23 45.24 46.42 42.65
46.16 46.01 47.09 47.32 47.48 48.58 48.44 49.15 50.88 52.02 53.56 52.18 43.05 43.40 46.31 46.12 48.06 46.11 45.60 44.01 44.96 44.38 45.31 43.11 44.49 46.73 47.67 44.97 45.44 44.00 45.78 46.24 45.71 49.46 49.01 50.70 44.20 44.44 43.12 45.76 45.41 43.73 46.35 46.11 46.76 47.07 47.04
46.85 46.66 46.64 47.30 47.49 47.38 47.94 48.76 48.49 50.18 50.96 46.10 45.43 47.38 47.04 43.84 44.50 44.83 44.05 45.43 45.16 47.04 46.52 47.38 47.95 46.87 46.54 48.60 50.53 51.59 49.52 49.36 49.07 47.79 47.00 44.54 42.67 40.75 38.24 44.10 43.27 40.02 44.66 45.96 47.06 48.69 48.68
47.18 47.61 47.57 47.85 47.76 48.11 48.02 48.00 48.76 48.37 49.11 47.65 46.43 48.32 45.49 39.03 42.87 43.25 46.31 47.46 46.78 48.22 46.56 47.11 48.13 45.55 50.67 54.37 52.70 49.08 46.76 46.79 46.90 46.93 48.73 43.47 42.18 40.73 36.77 38.79 30.86 44.21 50.53 49.60 48.02 49.36 50.80
47.62 47.75 48.07 48.01 48.14 48.34 48.22 48.30 48.13 48.58 48.38 45.90 45.35 44.58 43.16 39.84 44.38 44.08 45.49 45.97 48.71 49.85 48.26 49.12 49.87 50.90 53.30 50.23 40.40 36.40 35.62 38.39 41.81 44.64 45.94 47.29 43.00 36.33 34.39 34.43 39.69 43.62 47.36 46.85 45.61 46.38 50.89
47.50 47.82 48.08 47.93 47.75 47.84 47.74 47.74 48.23 48.57 48.63 46.39 44.79 45.77 41.94 38.56 38.18 42.47 45.08 46.25 45.96 46.66 47.09 47.78 53.64 53.86 52.04 44.75 36.76 34.40 32.82 37.41 37.85 40.50 46.71 45.98 45.22 38.95 33.86 32.41 31.80 44.36 48.53 52.16 51.82 42.26 51.40
46.01 47.30 47.78 47.81 47.65 47.35 47.60 47.58 47.47 48.13 48.77 46.54 44.17 45.19 41.27 33.86 37.90 40.17 40.68 42.04 46.97 45.99 43.68 45.99 47.86 47.72 49.57 40.98 36.22 35.10 35.85 42.42 37.40 38.86 39.51 38.94 39.48 35.75 35.68 33.57 39.07 48.53 50.25 50.90 39.63 43.72 51.97
44.68 45.84 47.05 47.35 47.30 47.30 47.24 47.58 47.65 47.76 48.34 47.52 44.38 46.17 40.72 34.77 36.62 40.13 40.05 38.90 40.05 39.48 42.03 40.20 42.03 40.32 42.18 39.66 37.85 35.31 36.76 39.72 39.98 44.55 43.07 39.57 36.43 36.11 37.64 34.55 32.94 50.39 50.00 43.43 49.51 53.06 51.45
42.96 44.20 46.06 46.88 46.91 46.91 47.18 47.32 47.60 47.73 47.97 47.99 41.02 46.47 46.91 40.46 36.47 41.53 42.16 43.01 42.05 40.78 37.11 37.00 37.29 39.50 38.49 39.91 41.48 39.20 34.58 38.54 39.97 37.12 47.61 38.18 42.86 40.05 41.15 40.61 49.80 52.31 51.90 53.24 52.91 52.23 50.68
MSLP
1012.34 1012.82 1013.83 1014.32 1014.14 1014.56 1014.94 1015.21 1015.70 1015.90 1016.31 1016.72 1016.58 1016.54 1016.65 1016.62 1016.50 1016.24 1016.33 1015.94 1015.61 1015.22 1015.21 1014.85 1014.40 1013.85 1012.11 1010.81 1009.95 1010.57 1011.32 1011.30 1010.77 1010.44 1009.71 1009.26 1008.83 1008.42 1007.95 1007.99 1008.27 1007.98 1007.39 1007.55 1007.36 1007.42 1007.17
1011.16 1011.96 1012.90 1013.57 1013.68 1013.98 1014.45 1014.54 1015.09 1015.55 1015.78 1016.27 1016.34 1016.54 1016.27 1016.49 1016.38 1015.91 1015.87 1015.82 1015.54 1014.80 1014.85 1014.67 1014.23 1013.72 1012.30 1010.39 1009.96 1010.34 1010.58 1010.69 1010.14 1009.91 1009.64 1009.36 1008.95 1008.91 1008.42 1008.21 1008.09 1007.98 1007.75 1007.34 1007.06 1006.80 1006.60
1010.30 1011.02 1011.89 1012.54 1012.87 1013.51 1013.73 1014.03 1014.38 1015.06 1015.35 1015.61 1015.99 1016.44 1016.01 1016.18 1016.16 1015.96 1015.43 1015.38 1015.26 1014.92 1014.24 1014.42 1013.96 1013.37 1011.93 1010.04 1009.71 1010.01 1010.42 1010.06 1010.05 1009.78 1009.53 1009.68 1009.53 1009.20 1008.96 1008.45 1008.53 1008.17 1007.65 1006.66 1006.17 1006.07 1006.20
1009.15 1010.04 1010.77 1011.26 1012.05 1012.90 1013.08 1013.51 1013.87 1014.48 1015.07 1015.26 1015.16 1016.15 1016.13 1015.73 1015.81 1015.76 1015.34 1015.33 1014.73 1014.68 1014.17 1014.08 1013.72 1012.82 1010.81 1010.04 1009.98 1010.02 1010.06 1009.95 1010.08 1009.97 1009.88 1009.97 1009.90 1009.44 1009.08 1008.98 1008.50 1007.80 1007.26 1005.95 1005.77 1005.98 1006.18
1008.20 1008.87 1009.56 1010.22 1010.93 1012.05 1012.52 1012.80 1013.36 1013.84 1014.60 1014.87 1014.68 1015.50 1015.90 1015.71 1015.75 1015.42 1015.27 1014.94 1014.73 1014.18 1014.08 1013.69 1013.43 1012.22 1010.32 1010.57 1009.84 1009.40 1009.68 1009.54 1009.88 1009.89 1009.94 1010.20 1009.82 1009.29 1009.33 1008.46 1007.62 1007.17 1005.81 1005.61 1005.37 1005.93 1005.75
1007.43 1007.86 1008.28 1008.95 1010.00 1010.87 1011.54 1012.14 1012.64 1013.17 1014.09 1014.42 1014.44 1014.99 1015.51 1015.39 1015.79 1015.27 1015.02 1014.64 1014.37 1014.32 1013.90 1013.45 1012.95 1012.33 1010.16 1009.71 1009.61 1009.55 1009.68 1009.77 1009.69 1009.81 1009.57 1009.71 1009.28 1008.88 1008.49 1007.89 1006.30 1005.72 1005.97 1005.73 1005.44 1005.64 1005.77
1006.78 1006.62 1007.09 1007.86 1008.87 1009.86 1010.62 1011.22 1011.85 1012.57 1013.31 1014.05 1014.04 1014.69 1015.22 1015.11 1015.32 1015.49 1014.49 1013.90 1014.32 1013.73 1012.78 1011.40 1010.69 1010.22 1009.88 1009.74 1009.97 1009.58 1009.69 1009.79 1009.84 1009.70 1009.15 1009.38 1008.83 1007.86 1007.40 1007.52 1007.45 1007.24 1006.69 1005.93 1005.65 1005.76 1006.08
1005.55 1005.62 1006.04 1006.77 1007.75 1008.65 1009.68 1010.31 1011.14 1011.90 1012.54 1013.49 1013.67 1014.32 1014.84 1015.06 1015.12 1015.44 1014.69 1013.40 1013.29 1013.57 1011.87 1010.65 1010.54 1010.37 1010.22 1010.31 1009.44 1009.51 1009.94 1009.70 1009.48 1008.96 1009.29 1009.39 1008.32 1007.83 1008.08 1008.35 1008.25 1007.68 1007.01 1006.18 1005.87 1005.98 1006.14
1004.12 1003.96 1005.07 1005.80 1006.38 1007.66 1008.67 1009.18 1010.33 1011.08 1011.80 1012.82 1013.19 1013.91 1014.54 1014.89 1015.10 1015.06 1013.94 1013.09 1013.33 1013.22 1012.20 1010.10 1009.94 1009.59 1009.57 1010.27 1009.09 1008.54 1009.28 1008.97 1008.93 1008.80 1008.80 1008.39 1008.31 1008.85 1008.51 1008.23 1008.08 1007.52 1006.93 1006.43 1006.33 1005.77 1005.36
1002.68 1002.54 1003.70 1004.41 1005.23 1006.26 1007.47 1008.30 1009.29 1010.23 1011.15 1012.04 1012.80 1013.47 1014.25 1014.61 1015.46 1013.94 1013.33 1013.07 1013.30 1013.68 1011.93 1009.56 1009.47 1009.01 1009.45 1009.34 1009.34 1008.87 1008.76 1008.75 1008.98 1008.56 1008.78 1008.48 1008.22 1008.75 1008.48 1007.97 1007.75 1006.97 1006.91 1006.92 1006.53 1005.98 1004.53
1001.73 1001.85 1003.03 1003.28 1004.08 1004.88 1006.22 1007.30 1008.38 1009.31 1010.39 1011.32 1012.24 1013.06 1013.90 1013.79 1013.74 1013.21 1012.86 1013.08 1013.40 1013.77 1011.17 1008.91 1009.05 1009.21 1009.10 1009.09 1008.93 1009.13 1009.18 1008.84 1008.28 1008.44 1008.82 1007.79 1008.00 1008.08 1007.91 1007.41 1007.61 1006.84 1007.17 1006.94 1006.57 1005.93 1005.36
999.88 1000.44 1001.68 1002.39 1002.67 1003.85 1005.02 1006.18 1007.58 1008.43 1009.52 1010.42 1011.68 1012.66 1013.47 1014.11 1013.78 1012.62 1012.93 1013.13 1013.43 1012.83 1009.61 1008.26 1008.66 1008.80 1009.03 1008.92 1008.95 1009.05 1008.91 1008.91 1008.56 1008.32 1008.18 1007.66 1008.10 1007.67 1006.96 1007.25 1007.40 1007.36 1007.15 1006.92 1006.69 1005.95 1004.67
998.56 998.76 999.84 1000.45 1001.63 1002.81 1003.91 1005.34 1006.62 1007.68 1008.99 1009.60 1011.12 1012.11 1012.83 1012.56 1012.27 1012.42 1012.84 1012.67 1012.77 1010.58 1009.03 1007.87 1007.62 1008.10 1008.16 1008.30 1008.60 1008.67 1008.25 1008.24 1007.47 1007.54 1006.93 1006.81 1006.80 1006.83 1007.07 1006.75 1007.39 1007.17 1006.55 1005.48 1005.11 1004.87 1003.40
997.56 997.27 997.71 998.85 1000.40 1001.72 1002.74 1004.26 1005.60 1006.95 1008.24 1009.27 1010.66 1011.86 1012.01 1011.89 1012.27 1012.32 1012.39 1012.18 1010.58 1007.83 1007.55 1007.58 1007.36 1007.82 1007.49 1007.68 1007.88 1008.33 1007.74 1007.33 1007.28 1006.99 1006.13 1005.51 1005.61 1005.89 1006.11 1005.83 1005.64 1005.97 1005.85 1005.19 1004.40 1003.75 1003.37
996.30 995.76 996.53 997.25 998.80 1000.28 1001.61 1003.32 1004.61 1005.94 1007.69 1008.62 1010.95 1011.59 1011.78 1011.76 1012.25 1012.23 1011.49 1010.60 1007.36 1007.17 1006.87 1006.99 1007.19 1007.28 1007.10 1007.21 1007.39 1007.65 1007.22 1006.47 1006.11 1006.47 1005.87 1005.32 1005.20 1005.61 1005.82 1005.93 1005.90 1005.68 1005.73 1005.49 1005.30 1004.89 1004.13
996.00 995.24 996.01 996.35 997.43 999.31 1000.30 1002.38 1003.80 1004.94 1006.76 1008.50 1009.86 1010.67 1010.91 1011.18 1011.96 1012.10 1011.37 1008.02 1007.30 1007.07 1006.77 1006.48 1005.68 1006.18 1005.89 1006.28 1006.84 1006.98 1006.55 1005.68 1005.86 1005.88 1005.85 1005.67 1005.50 1005.70 1005.75 1006.03 1006.03 1005.90 1005.29 1005.58 1005.39 1004.27 1002.94
996.33 995.86 995.55 996.07 996.60 998.35 999.62 1001.28 1002.64 1004.27 1005.58 1007.98 1009.06 1009.84 1009.85 1011.08 1011.81 1011.66 1009.02 1006.96 1007.24 1007.36 1007.08 1006.54 1005.62 1005.61 1005.75 1005.77 1005.90 1006.04 1005.51 1005.74 1005.79 1005.87 1006.05 1005.91 1006.03 1006.00 1006.41 1005.35 1004.50 1005.58 1005.48 1005.27 1004.89 1004.19 1003.14
996.40 995.03 995.78 997.14 995.82 997.51 999.01 1000.24 1001.24 1003.03 1005.67 1006.78 1007.75 1008.65 1009.14 1010.15 1011.03 1009.76 1007.50 1006.73 1006.90 1006.84 1007.18 1007.01 1006.48 1005.88 1005.75 1005.79 1005.66 1005.66 1005.32 1005.18 1005.74 1006.29 1006.49 1006.44 1006.18 1005.40 1004.88 1004.88 1005.24 1004.87 1004.39 1004.52 1004.27 1003.60 1002.82
996.69 996.02 996.29 997.58 997.82 997.20 998.12 999.38 1000.76 1002.02 1003.51 1004.97 1006.27 1008.00 1008.95 1008.77 1008.11 1006.97 1007.02 1006.93 1006.90 1006.79 1006.43 1006.56 1006.36 1006.20 1006.02 1005.56 1005.46 1005.35 1005.66 1005.91 1006.47 1006.42 1006.32 1006.92 1006.46 1005.51 1005.06 1005.14 1005.33 1004.69 1004.47 1004.57 1004.16 1003.88 1002.39
997.35 996.60 997.17 998.08 998.22 997.68 997.92 998.68 999.93 1001.26 1002.29 1003.89 1005.27 1006.52 1007.59 1007.52 1005.13 1005.31 1005.66 1005.89 1005.99 1006.40 1006.31 1006.08 1005.78 1006.32 1006.03 1005.58 1005.50 1004.96 1005.62 1006.29 1006.91 1007.08 1007.33 1006.87 1006.08 1005.29 1004.44 1004.08 1003.88 1003.73 1003.98 1003.89 1003.91 1003.11 1002.24
997.38 997.56 998.04 998.96 998.68 998.14 998.57 999.16 999.76 1000.95 1001.61 1002.62 1003.38 1003.87 1003.86 1003.63 1003.70 1004.17 1005.26 1004.66 1005.33 1005.42 1005.97 1005.86 1005.63 1005.30 1005.45 1005.13 1005.05 1004.89 1005.63 1006.51 1007.60 1007.66 1007.69 1007.26 1006.04 1005.76 1004.90 1004.65 1004.32 1003.92 1003.04 1003.18 1002.68 1002.49 1001.83
997.61 997.54 998.77 998.91 999.11 998.99 999.35 999.79 999.98 1000.64 1000.69 1001.23 1002.62 1003.16 1003.65 1002.94 1003.26 1003.99 1003.64 1002.65 1003.27 1004.58 1004.82 1004.67 1004.64 1005.15 1005.14 1004.07 1004.03 1004.50 1005.98 1006.60 1007.04 1007.72 1007.62 1007.14 1006.43 1006.86 1005.34 1005.68 1005.13 1003.48 1002.84 1002.95 1002.08 1001.21 1000.18
996.88 997.41 997.98 998.09 998.74 999.15 999.94 1000.27 1000.80 1000.60 1000.92 1001.43 1001.48 1002.86 1002.44 1002.97 1002.94 1003.03 1000.86 1001.40 1002.30 1003.55 1003.55 1003.56 1004.16 1004.78 1003.72 1002.97 1003.69 1004.53 1005.76 1006.83 1007.55 1007.53 1007.52 1007.58 1007.95 1008.11 1005.55 1006.50 1005.75 1001.88 1001.22 1001.15 1000.16 1000.48 1000.02
996.65 996.84 997.49 998.29 998.84 999.26 999.92 1001.06 1001.17 1001.99 1001.70 1001.60 1002.84 1002.35 1002.76 1002.21 1002.60 1001.47 1001.26 1001.89 1002.00 1002.27 1002.77 1003.24 1003.50 1003.62 1003.00 1003.95 1004.85 1005.79 1006.94 1007.57 1007.86 1007.43 1007.71 1007.31 1008.12 1008.57 1007.30 1007.19 1004.94 998.88 999.57 999.68 999.51 998.63 998.97
995.77 996.54 997.27 998.02 999.06 999.75 1000.24 1000.60 1000.93 1002.09 1002.08 1002.09 1002.53 1002.79 1002.48 1001.74 1001.31 1002.06 1001.99 1001.61 1002.04 1002.20 1002.25 1002.29 1002.57 1002.89 1004.27 1004.71 1005.92 1006.55 1007.33 1007.56 1006.36 1006.32 1006.32 1006.84 1007.74 1007.86 1007.54 1006.44 1002.82 997.94 999.43 999.02 998.70 996.05 997.86
995.69 996.63 997.11 997.91 999.00 999.23 999.47 999.79 1000.86 1001.91 1002.48 1003.33 1003.51 1003.22 1003.31 1002.94 1003.40 1002.57 1002.44 1001.98 1002.18 1002.11 1002.71 1002.04 1002.42 1002.89 1004.00 1004.99 1006.00 1005.79 1006.00 1005.57 1005.34 1004.25 1004.31 1005.64 1006.34 1007.04 1006.70 1005.23 1002.31 994.32 998.02 997.34 998.08 994.14 996.76
996.09 996.28 996.91 997.55 997.96 998.22 998.59 999.66 1000.60 1001.59 1002.56 1003.29 1003.49 1003.64 1004.27 1004.45 1004.28 1003.48 1003.48 1002.95 1002.37 1002.83 1003.21 1003.24 1003.24 1003.98 1004.19 1004.79 1005.26 1005.19 1004.53 1004.19 1003.32 1002.21 1002.89 1003.77 1004.43 1004.31 1003.97 1003.23 1000.00 996.88 997.97 998.45 997.90 994.68 995.29
995.57 996.07 996.34 996.77 997.04 997.44 998.12 999.29 1000.21 1001.20 1002.02 1003.00 1003.39 1004.09 1004.49 1004.71 1004.88 1004.65 1004.40 1004.18 1003.91 1004.10 1004.25 1004.60 1004.52 1003.93 1004.64 1004.70 1004.49 1004.99 1004.01 1002.81 1001.92 999.72 1000.07 1001.24 1002.45 1002.13 1002.09 1001.26 998.71 996.83 996.94 996.97 995.07 995.63 996.20
995.97 996.20 996.33 996.59 996.45 996.97 997.81 998.71 999.81 1000.61 1001.69 1002.62 1003.60 1003.62 1004.32 1004.70 1005.51 1005.29 1005.05 1004.99 1004.99 1005.80 1006.24 1005.67 1005.50 1005.24 1005.16 1004.92 1004.05 1004.37 1003.73 1002.57 1001.43 999.78 999.11 999.19 998.35 998.96 999.29 997.00 996.22 995.60 995.57 995.73 996.17 995.82 996.37
Wind_Speed
27 23 24 21 19 19 18 16 14 13 12 11 9 7 7 7 8 8 11 10 13 14 11 10 15 17 7 4 1 8 7 6 5 4 4 5 7 5 8 4 6 10 7 6 9 10 12
26 25 25 23 21 20 20 18 15 13 12 11 9 9 6 6 7 7 9 11 13 14 15 11 13 12 6 7 6 6 4 5 5 5 2 3 1 2 3 5 8 2 7 10 11 13 13
28 27 26 24 22 22 21 18 16 15 13 12 10 9 8 7 7 9 9 11 11 15 15 13 8 5 7 5 3 5 3 2 3 2 2 0 1 6 1 4 2 5 10 10 12 9 5
30 29 28 26 23 22 20 18 17 16 14 13 11 10 9 7 7 9 10 13 10 15 12 8 3 3 7 3 2 5 6 5 5 2 1 0 2 4 6 1 6 10 6 10 9 5 5
31 30 29 28 25 24 21 20 18 17 16 14 12 11 9 7 8 7 11 14 13 9 4 2 4 4 6 3 6 6 8 7 6 4 2 2 5 5 4 10 9 9 11 7 4 4 3
28 32 31 29 27 26 24 22 19 18 16 14 12 11 10 7 7 6 10 10 1 3 4 3 1 6 6 2 4 4 5 5 5 4 7 6 7 9 8 9 9 5 9 8 7 7 7
23 34 32 31 29 27 25 24 21 19 17 15 13 11 9 7 6 5 7 3 6 6 6 7 2 4 1 4 3 6 5 6 6 8 10 4 9 11 13 9 9 9 9 11 7 3 7
30 29 33 33 31 29 27 25 22 21 19 16 14 12 10 7 5 3 4 4 2 5 8 10 14 11 7 2 5 10 5 9 10 12 6 7 13 10 7 7 9 9 12 13 10 2 6
25 28 34 33 32 30 29 26 24 22 20 18 15 13 10 7 4 3 4 3 4 1 7 4 6 7 4 11 8 10 13 7 8 9 10 11 4 3 8 11 12 13 13 10 10 8 12
22 22 37 35 34 32 29 27 25 23 21 18 16 14 12 10 3 4 5 6 4 3 5 5 6 4 6 5 8 4 9 4 6 7 5 8 5 9 9 8 11 12 10 13 10 7 7
23 23 28 34 34 32 30 29 27 25 23 20 18 16 14 14 4 6 5 6 7 4 7 6 5 6 7 6 9 8 7 6 8 8 6 5 6 9 12 10 10 3 3 6 7 10 7
18 25 31 33 33 31 31 29 27 26 25 22 20 18 15 4 3 2 6 9 4 4 11 7 7 9 8 4 4 6 9 4 1 5 8 8 1 5 5 4 11 4 6 6 7 9 10
11 14 34 36 34 33 32 30 28 26 24 23 21 20 18 8 5 10 8 6 4 9 3 8 7 9 12 9 7 10 13 10 7 7 9 8 14 5 8 8 8 10 8 5 7 7 8
18 2 32 38 37 34 33 31 29 27 25 23 22 21 12 8 5 11 6 6 12 4 12 2 5 10 11 12 9 10 10 11 13 9 3 6 7 14 13 12 5 15 10 7 7 8 10
9 3 28 39 36 35 33 31 30 27 25 25 22 11 5 9 7 7 11 11 11 10 8 11 8 9 11 10 6 12 12 9 7 17 9 5 5 5 6 5 11 8 10 5 13 17 12
10 9 5 35 36 34 34 32 30 30 28 30 10 8 7 13 9 7 11 22 14 6 7 12 17 15 15 15 13 13 14 10 7 15 12 1 7 6 7 6 6 10 5 5 6 8 16
11 15 9 13 34 33 34 33 32 31 33 29 7 8 11 14 8 8 18 19 20 11 8 13 16 11 9 9 16 12 9 5 10 10 15 7 7 6 5 12 15 8 11 9 9 10 14
15 14 16 6 15 31 31 31 33 35 35 23 9 9 15 14 10 10 21 26 16 18 12 8 5 13 14 11 12 14 13 7 10 10 10 11 6 12 19 4 5 11 16 18 13 15 13
13 11 9 10 2 23 30 31 32 36 39 13 9 7 12 15 16 18 18 28 24 17 22 12 11 12 11 11 9 12 10 4 8 11 11 10 8 11 15 13 8 11 14 17 19 18 23
8 6 4 6 8 6 12 27 31 37 37 12 7 8 5 15 19 28 26 25 30 22 22 21 11 11 10 13 12 9 9 5 4 9 5 7 15 15 16 18 14 14 13 18 20 18 19
5 4 4 6 4 4 8 6 22 32 38 13 6 7 7 13 23 27 25 18 26 26 27 22 23 24 20 16 20 20 16 8 3 4 5 7 20 23 24 23 20 22 28 26 28 24 29
9 6 10 9 8 3 5 4 5 15 32 7 7 6 5 5 18 30 25 35 30 26 21 24 29 25 23 27 24 19 19 12 15 10 7 9 15 15 27 24 24 34 33 28 32 33 37
12 12 10 10 10 9 8 7 3 1 5 2 4 1 5 7 6 22 31 27 30 20 23 28 31 28 31 32 28 21 4 5 13 19 18 10 5 9 24 20 19 30 23 34 36 32 34
14 15 16 15 15 14 13 12 11 10 6 3 2 3 6 5 8 10 14 20 21 26 21 24 24 28 27 14 15 2 2 10 15 21 19 12 14 11 6 3 18 14 10 11 17 25 27
14 15 17 18 18 18 17 15 14 12 8 4 3 1 3 4 11 20 24 18 19 19 21 25 24 21 17 17 2 3 2 4 15 24 24 21 16 6 7 11 22 35 20 14 14 31 25
6 16 17 20 21 18 17 15 14 16 13 3 1 2 2 4 4 4 14 18 16 15 15 17 14 5 8 8 5 11 9 7 9 7 28 26 21 14 5 8 18 27 3 7 18 32 17
6 6 16 20 20 18 17 17 18 17 20 7 1 2 4 1 1 2 2 2 2 5 4 3 8 6 8 9 9 9 10 11 12 15 9 17 16 23 20 13 16 20 7 10 15 4 5
8 5 6 14 17 18 18 17 20 20 21 9 3 6 5 2 1 1 2 2 3 4 7 2 3 4 7 10 6 5 7 10 10 25 20 17 12 15 16 16 27 9 17 26 14 12 8
5 5 6 11 12 15 17 18 19 21 22 17 3 5 4 2 2 2 1 3 4 6 2 3 4 2 4 5 8 4 5 5 10 15 19 14 15 13 16 13 16 7 16 18 20 16 8
Wind_Direction
214 216 220 223 208 207 207 205 207 205 211 220 217 218 243 268 286 305 309 310 309 317 322 323 314 318 309 272 124 118 160 186 213 231 237 227 231 229 234 204 209 239 256 253 251 255 260
211 211 215 217 212 207 210 203 203 205 204 213 214 224 226 258 276 288 298 301 304 311 318 326 308 310 279 299 109 134 211 209 225 210 178 233 282 283 239 238 242 116 258 267 270 261 252
211 209 210 211 210 209 206 203 197 202 204 203 210 224 215 242 269 287 293 295 302 306 313 317 307 282 260 295 153 163 207 182 181 219 199 164 307 247 139 224 259 260 270 256 249 248 218
209 208 206 206 206 208 203 200 195 199 203 203 195 222 229 226 256 284 293 296 299 300 303 305 268 242 275 130 194 224 195 179 189 201 269 140 238 289 260 9 225 254 243 262 124 210 145
212 207 204 203 202 204 203 198 196 197 201 201 192 207 223 234 254 280 297 300 299 293 258 198 236 253 275 141 208 205 212 199 158 152 106 180 238 273 208 234 234 205 262 220 228 196 192
240 209 203 201 202 200 199 198 194 193 198 198 194 200 212 222 260 285 301 293 316 242 195 224 247 248 203 188 131 148 161 192 217 225 241 243 234 233 216 227 248 252 236 214 253 144 232
247 214 204 201 202 203 200 197 192 191 190 196 188 195 204 209 238 296 315 249 232 201 210 252 83 303 191 137 189 198 180 193 224 238 258 198 240 223 225 229 299 278 267 270 271 273 278
239 229 206 201 201 202 201 195 192 189 188 191 185 185 193 203 221 287 272 255 344 358 285 231 254 258 252 293 211 221 199 221 222 235 191 218 242 259 245 245 242 246 263 265 272 300 247
234 218 209 202 197 199 200 192 190 187 186 186 179 177 184 180 173 239 242 218 147 304 266 238 228 258 206 209 232 221 192 184 220 213 215 249 51 66 203 218 225 230 245 263 274 305 249
227 219 205 200 195 194 196 191 187 185 184 181 175 169 170 146 202 172 218 168 202 238 263 206 200 200 157 175 214 152 191 198 199 226 205 254 232 236 240 245 223 235 224 247 265 266 278
209 211 219 201 196 189 191 188 186 182 180 178 169 166 171 181 124 196 114 147 139 230 268 117 151 121 152 204 125 171 172 193 204 176 201 106 193 214 236 247 197 218 181 224 254 264 300
194 213 212 206 192 187 186 184 183 180 177 172 167 166 146 196 240 162 143 141 184 209 242 164 145 176 164 177 180 132 180 225 348 193 231 262 205 236 230 198 205 128 190 211 235 257 248
205 199 208 199 190 186 183 181 178 176 175 166 164 159 171 170 199 155 156 170 194 227 80 173 182 180 190 171 164 196 179 190 194 190 211 197 220 207 210 181 190 226 237 254 220 203 261
196 235 206 191 186 183 179 177 174 173 168 160 157 158 185 184 165 154 175 175 222 241 197 102 157 172 189 165 195 193 184 209 223 241 253 231 199 195 189 227 212 207 240 265 280 279 290
154 120 208 184 180 179 175 176 171 166 162 150 144 176 173 192 174 187 186 207 219 193 179 172 153 198 197 197 199 188 211 218 226 203 221 220 242 176 197 208 218 169 216 280 274 265 265
49 93 149 186 176 176 172 173 168 159 152 146 164 165 184 171 165 183 208 225 214 190 162 198 200 203 199 190 185 197 189 208 224 209 224 192 267 209 156 198 215 266 115 210 201 265 268
13 47 67 202 171 174 171 169 163 156 149 159 152 169 162 156 163 192 213 219 216 207 197 199 209 211 225 181 204 196 196 171 213 188 206 231 235 174 197 215 231 189 230 242 289 271 272
356 44 27 2 176 173 174 167 161 155 158 161 157 192 158 154 181 210 221 211 205 203 198 233 258 230 211 195 197 208 213 232 177 157 181 211 252 242 241 214 301 285 264 243 248 264 235
336 13 28 357 63 191 176 171 164 160 164 159 176 160 173 164 197 208 217 222 230 209 205 201 209 218 208 205 210 202 198 212 184 185 184 177 214 246 242 225 216 241 238 251 262 265 260
293 359 13 317 330 91 147 171 168 167 173 170 160 164 176 202 213 204 201 215 215 218 219 212 215 208 195 213 228 215 208 181 190 230 11 191 244 238 248 256 265 245 224 245 253 255 271
245 275 229 247 280 21 85 121 177 178 180 182 176 197 191 200 205 211 204 203 214 213 214 208 226 219 209 225 224 229 228 193 169 180 225 221 249 254 254 262 272 272 265 260 255 254 256
228 206 240 224 202 178 154 280 128 171 194 189 169 152 180 203 199 203 203 213 209 206 199 213 224 212 223 227 221 225 232 205 223 202 221 207 258 280 272 278 278 267 258 259 261 257 263
218 205 220 231 228 194 200 181 212 156 133 121 24 46 122 162 188 193 213 215 217 199 211 210 211 218 219 225 230 242 218 198 226 244 247 223 229 243 257 256 276 266 252 247 251 252 249
225 208 208 207 214 205 195 204 186 214 248 90 172 134 182 206 215 216 197 204 210 209 208 204 213 214 220 231 248 303 143 218 231 238 238 226 227 230 263 130 228 243 244 224 251 249 244
220 215 211 204 205 204 196 192 186 207 206 34 356 101 227 172 197 224 229 221 222 223 222 219 209 213 217 224 102 151 195 197 228 231 223 222 227 229 221 213 274 270 258 245 235 256 244
222 213 211 204 205 200 194 187 193 191 189 125 354 21 51 109 202 330 215 215 224 226 234 243 233 194 180 192 180 202 200 183 205 234 208 218 221 215 185 222 241 268 191 260 227 263 235
340 248 213 208 200 194 190 191 190 196 183 178 137 87 68 74 4 14 146 213 173 170 210 175 190 185 189 187 213 206 215 193 223 220 157 205 209 215 219 231 259 260 192 136 202 241 166
357 305 230 198 193 189 186 192 192 194 190 183 132 174 132 109 186 81 67 73 33 7 210 83 106 230 187 219 213 206 226 201 238 240 224 187 188 214 223 222 245 217 226 211 235 276 290
300 307 248 216 195 188 190 192 195 195 194 181 147 180 137 117 72 328 57 150 119 115 56 4 356 14 1 253 212 180 198 200 217 243 222 219 209 202 201 224 246 255 236 233 242 260 257